Location: Mentone
(34.5413°N, 85.5351°W)
Time: 03:14:34
(UTC-06:00)

S-56A Canister/Altair - Visible Passes

Search period start: 24 January 2017 00:00
Search period end: 03 February 2017 00:00
Orbit: 639 x 2495 km, 38.9° (Epoch: 22 January)

Date Brightness Start Highest point End Pass type
(mag) Time Alt. Az. Time Alt. Az. Time Alt. Az.
24 Jan 11.0 01:24:34 26° ENE 01:24:34 26° ENE 01:28:57 10° ENE visible
24 Jan 9.6 03:22:00 80° NNW 03:22:17 80° NNW 03:34:28 10° ENE visible
24 Jan 9.5 05:19:27 22° WNW 05:29:36 74° N 05:39:27 10° E visible
25 Jan 11.4 00:53:46 17° ENE 00:53:46 17° ENE 00:55:56 10° ENE visible
25 Jan 9.8 02:51:12 70° NE 02:51:12 70° NE 03:01:45 10° ENE visible
25 Jan 9.6 04:48:37 33° WNW 04:56:26 73° N 05:06:58 10° E visible
26 Jan 10.2 02:20:20 52° ENE 02:20:20 52° ENE 02:28:57 10° ENE visible
26 Jan 9.7 04:17:46 46° WNW 04:23:10 73° N 04:34:24 10° E visible
26 Jan 9.4 06:16:25 10° WNW 06:29:54 84° SSW 06:38:54 10° ESE visible
27 Jan 10.6 01:49:28 38° ENE 01:49:28 38° ENE 01:56:04 10° ENE visible
27 Jan 9.7 03:46:54 61° WNW 03:49:51 73° N 04:01:46 10° E visible
27 Jan 9.5 05:44:20 14° WNW 05:56:56 89° SSW 06:06:35 10° ESE visible
28 Jan 11.0 01:18:36 27° ENE 01:18:36 27° ENE 01:23:06 10° ENE visible
28 Jan 9.7 03:16:02 74° NNW 03:16:27 74° N 03:29:02 10° E visible
28 Jan 9.6 05:13:27 23° WNW 05:23:52 87° NNE 05:34:11 10° ESE visible
29 Jan 11.4 00:47:43 18° ENE 00:47:43 18° ENE 00:50:02 10° ENE visible
29 Jan 9.9 02:45:09 67° NE 02:45:09 67° NE 02:56:14 10° E visible
29 Jan 9.6 04:42:35 33° WNW 04:50:41 84° NNE 05:01:42 10° ESE visible
30 Jan 11.7 00:16:52 10° ENE 00:16:52 10° ENE 00:16:53 10° ENE visible
30 Jan 10.3 02:14:18 52° ENE 02:14:18 52° ENE 02:23:20 10° E visible
30 Jan 9.7 04:11:43 46° WNW 04:17:26 81° NNE 04:29:07 10° ESE visible
30 Jan 9.7 06:10:07 10° WNW 06:23:31 59° SW 06:32:55 10° SE visible
31 Jan 10.7 01:43:27 38° ENE 01:43:27 38° ENE 01:50:20 10° ENE visible
31 Jan 9.7 03:40:54 62° WNW 03:44:05 79° NNE 03:56:27 10° E visible
31 Jan 9.7 05:38:19 15° WNW 05:50:38 65° SSW 06:00:44 10° SE visible
01 Feb 11.1 01:12:39 26° ENE 01:12:39 26° ENE 01:17:15 10° ENE visible
01 Feb 9.7 03:10:05 76° NNW 03:10:40 77° N 03:23:40 10° E visible
01 Feb 9.7 05:07:31 24° WNW 05:17:37 71° SSW 05:28:25 10° SE visible
01 Feb 11.0 20:10:17 10° S 20:10:28 10° S 20:10:28 10° S visible
02 Feb 11.4 00:41:52 17° ENE 00:41:52 17° ENE 00:44:06 10° ENE visible
02 Feb 9.9 02:39:19 68° ENE 02:39:19 68° ENE 02:50:48 10° E visible
02 Feb 9.7 04:36:45 35° WNW 04:44:31 77° SSW 04:56:00 10° SE visible
02 Feb 10.8 19:39:07 10° SSE 19:40:09 12° SSE 19:40:09 12° SSE visible
